DateTimeUTC,F1_A11,F1_S11,BsB_S11,BsG_S11,BsR_S11,BbsB_S11,BbsG_S11,BbsR_S11,BaB_A11,BaG_A11,BaR_A11,Tu_S11,T_S11,Uu_S11,U_S11,P_S11,T1_A11
2021-03-02T04:00:00Z,00000200,21000000,,,,,,,0000.00,-000.43,-000.33,15.9,23.5,,00.0,0646.6,30.9
2021-03-02T04:01:00Z,00000200,21000000,,,,,,,-000.31,0000.11,0000.28,15.9,23.6,,00.0,0646.6,30.9
2021-03-02T04:02:00Z,00000200,21000000,,,,,,,-000.20,0000.08,0000.27,15.9,23.6,,00.0,0646.6,30.9
2021-03-02T04:03:00Z,00000200,61000000,,,,,,,0000.40,0000.23,-000.41,15.9,23.6,,00.0,0646.6,30.9
2021-03-02T04:04:00Z,00000200,41000000,0001.26,0000.86,0000.50,-000.09,0000.14,0000.02,0000.10,0000.49,0000.48,16.2,23.4,,00.0,0647.6,30.9
2021-03-02T04:05:00Z,00000200,01000000,0001.00,0001.12,0000.34,0000.17,0000.20,0000.29,0000.59,0000.42,0000.10,16.3,23.4,,00.0,0647.7,30.9
2021-03-02T04:06:00Z,00000200,01000000,0001.41,0000.89,0000.26,0000.31,0000.30,0000.02,0000.22,0000.02,0000.54,16.2,23.3,,00.0,0647.7,30.9
2021-03-02T04:07:00Z,00000200,01000000,0001.57,0000.74,0000.21,0000.33,0000.14,-000.11,0000.27,0000.75,-000.05,16.1,23.3,,00.0,0647.8,30.9
2021-03-02T04:08:00Z,00000200,01000000,0000.79,0000.67,0000.48,0000.26,0000.04,-000.08,0000.52,-000.00,0000.25,16.1,23.3,,00.0,0647.8,30.9
2021-03-02T04:09:00Z,00000200,01000000,0000.66,0000.55,0000.27,0000.47,-000.09,0000.05,0000.09,0000.59,0000.54,16.0,23.2,,00.0,0647.8,30.9
2021-03-02T04:10:00Z,00000200,01000000,0001.57,0000.88,0000.66,0000.38,0000.22,0000.30,0000.24,0000.43,0000.06,15.9,23.2,,00.0,0647.8,30.8
2021-03-02T04:11:00Z,00000200,01000000,0001.15,0000.88,0000.05,0000.24,0000.32,0000.04,0000.61,0000.18,0000.63,15.8,23.1,,00.0,0647.8,30.8
2021-03-02T04:12:00Z,00000200,01000000,0000.50,0000.95,0000.45,0000.08,0000.03,-000.09,0000.53,-000.01,-000.08,15.8,23.1,,00.0,0647.7,30.8
2021-03-02T04:13:00Z,00000200,01000000,0001.56,0000.51,0000.32,0000.07,-000.07,0000.02,0000.27,0000.22,0000.27,15.7,23.1,,00.0,0647.8,30.8
2021-03-02T04:14:00Z,00000200,01000000,0001.11,0000.73,0000.18,0000.17,0000.08,0000.21,0000.44,0000.24,0000.11,15.6,23.0,,00.0,0647.8,30.8
2021-03-02T04:15:00Z,00000200,01000000,0001.05,0000.54,0000.28,0000.08,0000.17,0000.47,0000.15,0000.46,-000.04,15.6,23.0,,00.0,0647.8,30.8
2021-03-02T04:16:00Z,00000200,01000000,0001.19,0001.04,0000.28,0000.35,0000.09,0000.01,0000.34,0000.46,0000.43,15.6,22.9,,00.0,0647.8,30.8
2021-03-02T04:17:00Z,00000200,01000000,0001.17,0000.82,0000.40,0000.27,0000.16,0000.22,0000.05,0000.23,0000.36,15.7,23.0,,00.0,0647.9,30.8
2021-03-02T04:18:00Z,00000200,01000000,0001.43,0000.86,0000.38,0000.28,0000.03,0000.45,0000.45,0000.03,0000.09,15.7,23.0,,00.0,0647.9,30.8
2021-03-02T04:19:00Z,00000200,01000000,0001.22,0000.78,0000.46,-000.04,-000.14,-000.12,0000.19,0000.01,-000.18,15.8,23.0,,00.0,0648.0,30.8
2021-03-02T04:20:00Z,00000200,01000000,0000.56,0000.75,0000.59,0000.37,0000.21,0000.12,0000.35,0000.22,0000.48,15.8,23.0,,00.0,0648.0,30.8
2021-03-02T04:21:00Z,00000200,01000000,0001.75,0000.74,0000.49,0000.08,0000.07,-000.15,0000.77,0000.60,0000.27,15.8,23.0,,00.0,0648.0,30.8
2021-03-02T04:22:00Z,00000200,01000000,0000.74,0000.84,0000.46,0000.65,0000.02,0000.17,-000.23,-000.26,0000.19,15.9,23.0,,00.0,0648.0,30.8
2021-03-02T04:23:00Z,00000200,01000000,0001.68,0000.84,0000.16,0000.32,0000.20,-000.05,0000.56,0001.12,0000.31,15.9,23.0,,00.0,0648.0,30.8
2021-03-02T04:24:00Z,00000200,01000000,0000.90,0000.83,0000.42,0000.16,0000.07,0000.46,0000.59,0000.12,0000.40,15.9,23.1,,00.0,0648.0,30.8
2021-03-02T04:25:00Z,00000200,01000000,0000.99,0001.28,0000.33,-000.25,0000.04,-000.06,0000.42,0000.24,0000.06,16.0,23.1,,00.0,0647.9,30.9
2021-03-02T04:26:00Z,00000200,01000000,0000.79,0000.98,0000.40,-000.16,0000.12,-000.04,0000.34,0000.78,0000.53,16.0,23.1,,00.0,0647.9,30.9
2021-03-02T04:27:00Z,00000200,01000000,0001.42,0000.98,0000.16,0000.27,0000.13,0000.05,0000.39,0000.70,0000.30,16.0,23.1,,00.0,0647.8,30.9
2021-03-02T04:28:00Z,00000200,01000000,0001.78,0000.88,0000.36,0000.29,0000.04,-000.07,0000.57,0000.34,0000.62,16.1,23.1,,00.0,0647.8,30.9
2021-03-02T04:29:00Z,00000200,01000000,0001.21,0001.10,0000.46,0000.04,0000.30,-000.03,0000.48,0000.42,-000.07,16.0,23.1,,00.0,0647.7,30.9
2021-03-02T04:30:00Z,00000200,01000000,0001.40,0000.91,0000.53,0000.51,-000.05,0000.08,0000.14,-000.28,0000.11,16.0,23.1,,00.0,0647.7,30.9
2021-03-02T04:31:00Z,00000200,01000000,0001.16,0001.01,0000.57,0000.61,0000.16,0000.22,0000.50,0000.56,0000.64,16.0,23.1,,00.0,0647.7,30.9
2021-03-02T04:32:00Z,00000200,01000000,0001.53,0000.72,0000.46,0000.61,0000.28,-000.12,0000.65,0000.55,0000.01,16.0,23.1,,00.0,0647.7,30.9
2021-03-02T04:33:00Z,00000200,01000000,0000.68,0001.04,0000.38,0000.24,0000.05,-000.12,0000.61,0000.39,0000.56,16.0,23.1,,00.0,0647.7,30.8
2021-03-02T04:34:00Z,00000200,01000000,0001.60,0001.07,0000.64,-000.16,0000.40,0000.12,0000.26,0000.39,0000.01,16.0,23.1,,00.0,0647.7,30.8
2021-03-02T04:35:00Z,00000200,01000000,0001.33,0000.69,0000.49,0000.14,0000.24,0000.16,0000.51,0000.48,0000.71,16.0,23.1,,00.0,0647.7,30.9
2021-03-02T04:36:00Z,00000200,01000000,0001.10,0000.71,0000.30,0000.25,0000.23,0000.15,0000.56,0000.49,0000.30,16.1,23.1,,00.0,0647.7,30.9
2021-03-02T04:37:00Z,00000200,01000000,0001.27,0000.56,0000.36,-000.22,0000.15,0000.07,0000.63,0000.74,0000.35,16.1,23.2,,00.0,0647.7,30.9
2021-03-02T04:38:00Z,00000200,01000000,0001.19,0000.76,0000.32,0000.30,0000.01,0000.01,0000.31,0000.23,0000.29,16.1,23.1,,00.0,0647.6,30.9
2021-03-02T04:39:00Z,00000200,01000000,0001.19,0000.88,0000.31,-000.16,0000.12,0000.07,0000.65,0000.65,0000.37,16.1,23.1,,00.0,0647.6,30.9
2021-03-02T04:40:00Z,00000200,01000000,0000.76,0000.86,0000.67,0000.32,0000.05,0000.12,0000.14,0000.24,0000.24,16.0,23.1,,00.0,0647.6,30.9
2021-03-02T04:41:00Z,00000200,01000000,0001.13,0000.70,0000.34,0000.41,-000.06,0000.08,0000.54,0000.35,0000.05,16.0,23.1,,00.0,0647.6,30.9
2021-03-02T04:42:00Z,00000200,01000000,0001.36,0000.60,0000.34,-000.03,-000.04,0000.07,0000.49,0000.63,0000.57,15.9,23.0,,00.0,0647.6,30.8
2021-03-02T04:43:00Z,00000200,01000000,0000.98,0000.85,0000.53,0000.62,-000.11,0000.21,0000.61,0000.09,0000.26,15.8,23.0,,00.0,0647.6,30.8
2021-03-02T04:44:00Z,00000200,01000000,0000.38,0000.79,0000.63,0000.26,0000.11,-000.02,-000.14,0000.22,-000.10,15.7,23.0,,00.0,0647.6,30.8
2021-03-02T04:45:00Z,00000200,01000000,0001.17,0000.95,0000.53,0000.15,-000.06,0000.32,0000.55,0000.47,0000.40,15.7,22.9,,00.0,0647.6,30.8
2021-03-02T04:46:00Z,00000200,01000000,0001.45,0001.08,0000.49,0000.44,0000.04,0000.16,0000.43,-000.00,0000.29,15.7,22.9,,00.0,0647.6,30.8
2021-03-02T04:47:00Z,00000200,01000000,0001.43,0000.70,0000.30,0000.11,0000.17,0000.09,0000.16,0000.10,0000.15,15.8,22.9,,00.0,0647.6,30.8
2021-03-02T04:48:00Z,00000200,01000000,0000.93,0000.48,0000.30,0000.25,-000.19,0000.19,0000.44,0000.54,0000.12,15.8,22.9,,00.0,0647.6,30.8
2021-03-02T04:49:00Z,00000200,01000000,0001.25,0000.95,0000.41,0000.22,0000.15,0000.18,0000.58,0000.21,0000.44,15.8,22.9,,00.0,0647.6,30.8
2021-03-02T04:50:00Z,00000200,01000000,0000.54,0000.90,0000.67,0000.33,-000.02,0000.03,0000.37,0000.33,-000.12,15.8,22.9,,00.0,0647.6,30.8
2021-03-02T04:51:00Z,00000200,01000000,0002.01,0000.82,0000.25,0000.82,0000.24,-000.31,0000.25,0000.45,0000.45,15.8,23.0,,00.0,0647.6,30.8
2021-03-02T04:52:00Z,00000200,01000000,0001.60,0000.88,0000.55,0000.45,-000.06,-000.01,0000.54,0000.39,0000.42,15.9,23.0,,00.0,0647.6,30.8
2021-03-02T04:53:00Z,00000200,01000000,0001.34,0000.71,0000.41,0000.16,0000.08,0000.13,0000.66,0000.62,0000.48,15.9,23.0,,00.0,0647.7,30.8
2021-03-02T04:54:00Z,00000200,01000000,0000.99,0001.14,0000.48,0000.25,-000.11,0000.20,-000.00,0000.36,-000.14,15.9,23.0,,00.0,0647.7,30.8
2021-03-02T04:55:00Z,00000200,01000000,0001.12,0000.75,0000.40,-000.29,0000.21,0000.19,0000.45,0000.30,0000.72,16.0,23.0,,00.0,0647.8,30.8
2021-03-02T04:56:00Z,00000200,01000000,0001.27,0001.01,0000.24,-000.07,0000.11,-000.01,0000.44,0000.43,0000.15,16.0,23.1,,00.0,0647.8,30.9
2021-03-02T04:57:00Z,00000200,41000000,,,,,,,0000.49,0000.26,0000.32,16.0,23.1,,00.0,0647.6,30.9
2021-03-02T04:58:00Z,00000200,61000000,,,,,,,0000.05,0000.39,-000.17,15.7,23.3,,00.0,0646.9,30.9
2021-03-02T04:59:00Z,00000200,21000000,,,,,,,-000.17,-000.38,-000.14,15.7,23.4,,00.0,0646.9,30.9
